CW5020 Weather Reports


Display with metric or nautical units.
time (UTC)temp
F
wind
direction
speed
MPH
gust
MPH
rain 1hr
in
rain 24hr
in
rain mn
in
humidity
%
barometer
mb
20260906114502 67 34 0.0 1.0 0.00 0.00 0.00 92 1018.3
20260906114008 67 34 0.0 1.0 0.00 0.00 0.00 92 1018.2
20260906113503 67 34 0.0 1.0 0.00 0.00 0.00 92 1018.1
20260906113007 67 34 0.0 1.0 0.00 0.00 0.00 92 1018.1
20260906112004 67 34 0.0 2.0 0.00 0.00 0.00 92 1017.9
20260906111503 67 34 0.0 1.0 0.00 0.00 0.00 92 1017.9
20260906110503 67 34 0.0 1.0 0.00 0.00 0.00 92 1017.9
20260906110010 67 34 0.0 1.0 0.00 0.00 0.00 92 1017.9
20260906105503 67 34 1.0 4.0 0.00 0.00 0.00 92 1017.9
20260906104506 68 34 0.0 3.0 0.00 0.00 0.00 92 1017.7
20260906104004 68 34 0.0 1.0 0.00 0.00 0.00 91 1017.5
20260906103505 68 34 0.0 1.0 0.00 0.00 0.00 91 1017.5
20260906103004 68 34 0.0 2.0 0.00 0.00 0.00 91 1017.4
20260906102503 68 34 0.0 3.0 0.00 0.00 0.00 91 1017.3
20260906102004 68 34 0.0 3.0 0.00 0.00 0.00 91 1017.4
20260906101004 68 34 0.0 2.0 0.00 0.00 0.00 91 1017.5
20260906100505 68 34 0.0 1.0 0.00 0.00 0.00 91 1017.5
20260906100006 68 34 0.0 2.0 0.00 0.00 0.00 91 1017.4
20260906095502 68 34 0.0 2.0 0.00 0.00 0.00 91 1017.3
20260906095004 68 34 0.0 2.0 0.00 0.00 0.00 91 1017.3
20260906094503 68 34 0.0 2.0 0.00 0.00 0.00 91 1017.3
20260906094003 69 34 0.0 3.0 0.00 0.00 0.00 91 1017.1
20260906093004 69 34 0.0 2.0 0.00 0.00 0.00 90 1017.3
20260906092727 69 34 0.0 1.0 0.00 0.00 0.00 90 1017.1
20260906092003 69 34 0.0 1.0 0.00 0.00 0.00 90 1017.1
20260906091503 69 34 0.0 1.0 0.00 0.00 0.00 90 1017.1
20260906091004 69 34 0.0 2.0 0.00 0.00 0.00 90 1017.0
20260906090501 69 34 0.0 2.0 0.00 0.00 0.00 90 1017.0
20260906090007 69 34 0.0 1.0 0.00 0.00 0.00 90 1017.0
20260906085503 69 34 0.0 0.0 0.00 0.00 0.00 89 1017.0
20260906085003 69 34 0.0 0.0 0.00 0.00 0.00 89 1016.9
20260906084505 69 34 0.0 0.0 0.00 0.00 0.00 89 1017.0
20260906084007 69 34 0.0 0.0 0.00 0.00 0.00 89 1017.0
20260906083503 69 34 0.0 0.0 0.00 0.00 0.00 89 1017.0
20260906082502 69 34 0.0 0.0 0.00 0.00 0.00 89 1017.0
20260906081506 69 34 0.0 0.0 0.00 0.00 0.00 88 1017.0
20260906081003 70 34 0.0 0.0 0.00 0.00 0.00 88 1017.1
20260906080502 70 34 0.0 0.0 0.00 0.00 0.00 88 1017.3
20260906080003 70 34 0.0 0.0 0.00 0.00 0.00 88 1017.2
20260906075502 70 34 0.0 0.0 0.00 0.00 0.00 89 1017.3
20260906075003 70 34 0.0 0.0 0.00 0.00 0.00 89 1017.2
20260906074005 70 34 0.0 1.0 0.00 0.00 0.00 89 1017.1
20260906073004 70 34 0.0 0.0 0.00 0.00 0.00 88 1017.2
20260906072502 70 34 0.0 0.0 0.00 0.00 0.00 88 1017.3
20260906072004 70 34 0.0 0.0 0.00 0.00 0.00 88 1017.2
20260906071505 70 34 0.0 0.0 0.00 0.00 0.00 88 1017.3
20260906071005 70 34 0.0 0.0 0.00 0.00 0.00 88 1017.5
20260906070502 70 34 0.0 0.0 0.00 0.00 0.00 88 1017.4
20260906070003 70 34 0.0 0.0 0.00 0.00 0.00 88 1017.2
20260906065502 71 34 0.0 0.0 0.00 0.00 0.00 88 1017.3
20260906065004 71 23 0.0 1.0 0.00 0.00 0.00 88 1017.3
20260906064503 71 23 0.0 1.0 0.00 0.00 0.00 88 1017.3
20260906064003 71 23 0.0 1.0 0.00 0.00 0.00 87 1017.2
20260906063503 71 23 0.0 0.0 0.00 0.00 0.00 87 1017.2
20260906063007 71 23 0.0 0.0 0.00 0.00 0.00 87 1017.2
20260906062503 71 23 0.0 1.0 0.00 0.00 0.00 87 1017.2
20260906062004 71 23 0.0 2.0 0.00 0.00 0.00 87 1017.1
20260906061503 71 23 0.0 2.0 0.00 0.00 0.00 87 1017.1
20260906061004 71 64 0.0 2.0 0.00 0.00 0.00 87 1017.1
20260906060503 71 57 0.0 1.0 0.00 0.00 0.00 87 1017.2
20260906060008 71 51 0.0 1.0 0.00 0.00 0.00 86 1017.2
20260906055504 71 59 0.0 1.0 0.00 0.00 0.00 86 1017.2
20260906055006 71 59 0.0 2.0 0.00 0.00 0.00 86 1017.2
20260906054005 71 44 0.0 1.0 0.00 0.00 0.00 86 1017.2
20260906053008 72 61 0.0 4.0 0.00 0.00 0.00 85 1017.2
20260906052507 72 61 0.0 4.0 0.00 0.00 0.00 85 1017.2
20260906052005 72 42 0.0 2.0 0.00 0.00 0.00 85 1017.0
20260906051005 72 30 0.0 2.0 0.00 0.00 0.00 85 1017.0
20260906050508 72 74 0.0 1.0 0.00 0.00 0.00 85 1016.9
20260906050015 72 74 0.0 1.0 0.00 0.00 0.00 85 1017.0
20260906045505 72 74 0.0 1.0 0.00 0.00 0.00 85 1016.9
20260906045007 72 74 0.0 3.0 0.00 0.00 0.00 85 1016.9
20260906044505 72 78 0.0 3.0 0.00 0.00 0.00 85 1016.8
20260906044009 72 25 0.0 2.0 0.00 0.00 0.00 85 1016.8
20260906043505 72 5 0.0 2.0 0.00 0.00 0.00 85 1016.7
20260906043009 72 48 0.0 3.0 0.00 0.00 0.00 85 1016.6
20260906042505 72 43 0.0 3.0 0.00 0.00 0.00 85 1016.4
20260906042007 72 56 0.0 2.0 0.00 0.00 0.00 85 1016.3
20260906041504 72 48 0.0 2.0 0.00 0.00 0.00 85 1016.3
20260906041007 72 61 0.0 2.0 0.00 0.00 0.00 85 1016.1
20260906040504 72 63 0.0 2.0 0.00 0.00 0.00 85 1016.1
20260906040006 72 69 0.0 2.0 0.00 0.00 0.00 85 1016.1
20260906035505 72 49 0.0 3.0 0.00 0.00 0.00 85 1016.1
20260906035009 72 61 0.0 4.0 0.00 0.00 0.00 85 1016.1
20260906034504 72 72 0.0 4.0 0.00 0.00 0.00 85 1016.1
20260906034005 72 51 0.0 4.0 0.00 0.00 0.00 85 1016.1
20260906033503 72 31 0.0 3.0 0.00 0.00 0.00 85 1016.0
20260906033009 72 56 0.0 1.0 0.00 0.00 0.00 85 1016.0
20260906032504 72 69 0.0 3.0 0.00 0.00 0.00 85 1016.1
20260906031506 72 61 0.0 3.0 0.00 0.00 0.00 84 1016.1
20260906031006 72 37 0.0 3.0 0.00 0.00 0.00 84 1016.2
20260906030504 72 52 0.0 3.0 0.00 0.00 0.00 84 1016.2
20260906030008 72 58 0.0 2.0 0.00 0.00 0.00 84 1016.1
20260906025505 72 86 0.0 2.0 0.00 0.00 0.00 84 1016.2
20260906025007 72 69 0.0 4.0 0.00 0.00 0.00 84 1016.2
20260906024504 72 68 0.0 4.0 0.00 0.00 0.00 83 1016.2
20260906024010 72 346 0.0 3.0 0.00 0.00 0.00 83 1016.1
20260906023507 72 69 0.0 4.0 0.00 0.00 0.00 83 1016.0
20260906023010 72 53 0.0 4.0 0.00 0.00 0.00 83 1016.0
20260906022508 72 26 0.0 3.0 0.00 0.00 0.00 83 1015.9
20260906021504 72 61 0.0 3.0 0.00 0.00 0.00 83 1015.9
20260906021006 72 63 1.0 4.0 0.00 0.00 0.00 83 1015.8
20260906020504 72 42 1.0 9.0 0.00 0.00 0.00 83 1015.8
20260906020007 72 36 0.0 9.0 0.00 0.00 0.00 83 1016.0
20260906015504 72 5 0.0 3.0 0.00 0.00 0.00 83 1016.0
20260906015005 72 28 1.0 5.0 0.00 0.00 0.00 83 1016.1
20260906014504 72 42 1.0 5.0 0.00 0.00 0.00 83 1016.2
20260906014005 72 74 1.0 4.0 0.00 0.00 0.00 83 1016.1
20260906013503 72 42 0.0 4.0 0.00 0.00 0.00 83 1016.1
20260906013005 72 43 1.0 4.0 0.00 0.00 0.00 83 1016.1
20260906011504 72 20 1.0 5.0 0.00 0.00 0.00 84 1016.2
20260906010504 72 54 0.0 5.0 0.00 0.00 0.00 84 1016.1
20260906010007 72 65 0.0 3.0 0.00 0.00 0.00 83 1016.2
20260906005005 72 19 1.0 9.0 0.00 0.00 0.00 83 1015.9
20260906004009 72 25 1.0 5.0 0.00 0.00 0.00 83 1015.8
20260906003504 72 46 2.0 5.0 0.00 0.00 0.00 83 1015.6
20260906002503 72 24 2.0 6.0 0.00 0.00 0.00 82 1015.6
20260906002005 72 74 1.0 6.0 0.00 0.00 0.00 83 1015.6
20260906001503 72 51 1.0 6.0 0.00 0.00 0.00 83 1015.5
20260906000503 73 64 2.0 5.0 0.00 0.00 0.00 83 1015.5
20260906000008 73 67 2.0 6.0 0.00 0.00 0.00 83 1015.5
20260905235505 73 42 2.0 6.0 0.00 0.00 0.00 83 1015.5
20260905235009 73 76 2.0 6.0 0.00 0.00 0.00 82 1015.6
20260905234508 74 17 2.0 9.0 0.00 0.00 0.00 82 1015.6
20260905234006 74 34 2.0 9.0 0.00 0.00 0.00 81 1015.5
20260905233505 74 66 1.0 5.0 0.00 0.00 0.00 81 1015.5
20260905233007 75 62 2.0 6.0 0.00 0.00 0.00 80 1015.4
20260905232504 75 37 2.0 8.0 0.00 0.00 0.00 80 1015.4
20260905232006 76 39 1.0 8.0 0.00 0.00 0.00 79 1015.4
20260905231007 77 64 2.0 6.0 0.00 0.00 0.00 78 1015.2
20260905230008 77 67 1.0 3.0 0.00 0.00 0.00 78 1014.8
20260905225505 78 41 1.0 5.0 0.00 0.00 0.00 77 1014.9
20260905225006 78 42 2.0 5.0 0.00 0.00 0.00 76 1014.9
20260905223007 80 360 1.0 9.0 0.00 0.00 0.00 73 1014.7
20260905222505 80 67 1.0 4.0 0.00 0.00 0.00 73 1014.6
20260905222006 81 57 1.0 5.0 0.00 0.00 0.00 72 1014.6
20260905221504 81 43 0.0 5.0 0.00 0.00 0.00 72 1014.6
20260905221007 81 13 1.0 5.0 0.00 0.00 0.00 73 1014.8
20260905220011 80 24 1.0 4.0 0.00 0.00 0.00 73 1014.8
20260905215005 81 49 1.0 5.0 0.00 0.00 0.00 71 1014.6
20260905214503 82 54 1.0 5.0 0.00 0.00 0.00 71 1014.5
20260905214008 81 273 0.0 4.0 0.00 0.00 0.00 70 1014.6
20260905213503 81 53 0.0 4.0 0.00 0.00 0.00 72 1014.6
20260905213006 81 288 0.0 4.0 0.00 0.00 0.00 74 1014.6
20260905212503 80 57 1.0 4.0 0.00 0.00 0.00 73 1014.5
20260905212006 80 42 1.0 4.0 0.00 0.00 0.00 73 1014.5
20260905211504 80 59 1.0 5.0 0.00 0.00 0.00 74 1014.6
20260905211005 80 24 1.0 5.0 0.00 0.00 0.00 73 1014.4
20260905210503 80 59 1.0 4.0 0.00 0.00 0.00 73 1014.5
20260905210005 80 68 0.0 3.0 0.00 0.00 0.00 74 1014.5
20260905205503 80 34 0.0 3.0 0.00 0.00 0.00 75 1014.6
20260905205006 80 49 1.0 3.0 0.00 0.00 0.00 75 1014.7
20260905204503 80 49 1.0 5.0 0.00 0.00 0.00 75 1014.8
20260905204005 79 46 1.0 5.0 0.00 0.00 0.00 77 1014.8
20260905203506 78 286 0.0 4.0 0.00 0.00 0.00 78 1014.7
20260905203006 78 37 0.0 2.0 0.00 0.00 0.00 80 1014.9
20260905202004 77 45 2.0 6.0 0.00 0.00 0.00 79 1014.9
20260905201504 77 38 1.0 6.0 0.00 0.00 0.00 79 1014.9
20260905201007 78 39 1.0 6.0 0.00 0.00 0.00 79 1015.0
20260905200503 78 5 1.0 4.0 0.00 0.00 0.00 79 1015.0
20260905195004 78 34 1.0 5.0 0.00 0.00 0.00 79 1014.9
20260905194504 78 36 2.0 8.0 0.00 0.00 0.00 79 1015.0
20260905193504 78 10 1.0 5.0 0.00 0.00 0.00 79 1015.0
20260905193006 78 53 1.0 5.0 0.00 0.00 0.00 79 1015.1
20260905192503 78 32 1.0 6.0 0.00 0.00 0.00 79 1015.2
20260905192006 78 37 2.0 6.0 0.00 0.00 0.00 79 1015.1
20260905191504 78 37 1.0 4.0 0.00 0.00 0.00 80 1015.2
20260905190503 78 355 2.0 6.0 0.00 0.00 0.00 79 1015.2
20260905190004 78 14 1.0 5.0 0.00 0.00 0.00 79 1015.3
20260905185502 78 51 1.0 6.0 0.00 0.00 0.00 79 1015.2
20260905185005 78 12 2.0 6.0 0.00 0.00 0.00 79 1015.2
20260905184004 79 32 1.0 6.0 0.00 0.00 0.00 78 1015.2
20260905183003 79 50 1.0 5.0 0.00 0.00 0.00 78 1015.3
20260905181503 79 53 2.0 6.0 0.00 0.00 0.00 77 1015.3
20260905181006 80 279 1.0 5.0 0.00 0.00 0.00 77 1015.2
20260905180008 80 61 2.0 5.0 0.00 0.00 0.00 77 1015.2
20260905175504 80 70 2.0 5.0 0.00 0.00 0.00 76 1015.2
20260905175005 80 340 2.0 11.0 0.00 0.00 0.00 77 1015.2
20260905174506 80 21 2.0 11.0 0.00 0.00 0.00 76 1015.1
20260905173505 80 38 2.0 8.0 0.00 0.00 0.00 76 1015.0
20260905172504 80 24 1.0 4.0 0.00 0.00 0.00 76 1015.0
20260905172005 80 67 1.0 4.0 0.00 0.00 0.00 76 1015.0
20260905171504 80 55 1.0 4.0 0.00 0.00 0.00 78 1015.0
20260905171005 80 38 1.0 6.0 0.00 0.00 0.00 78 1015.0
20260905170503 80 56 1.0 4.0 0.00 0.00 0.00 77 1015.1
20260905170006 80 31 1.0 6.0 0.00 0.00 0.00 78 1015.1
20260905165503 80 275 1.0 6.0 0.00 0.00 0.00 78 1015.3
20260905165005 80 298 1.0 6.0 0.00 0.00 0.00 78 1015.2
20260905164503 80 13 1.0 6.0 0.00 0.00 0.00 77 1015.2
20260905163504 81 51 1.0 9.0 0.00 0.00 0.00 76 1015.2
20260905162504 81 63 1.0 4.0 0.00 0.00 0.00 76 1015.1
20260905162004 81 71 1.0 4.0 0.00 0.00 0.00 76 1015.1
20260905161504 81 55 1.0 4.0 0.00 0.00 0.00 75 1015.2
20260905160504 81 80 1.0 6.0 0.00 0.00 0.00 75 1015.1
20260905155506 82 48 0.0 2.0 0.00 0.00 0.00 75 1015.1
20260905154506 81 54 1.0 4.0 0.00 0.00 0.00 78 1014.9
20260905154006 80 53 1.0 4.0 0.00 0.00 0.00 77 1014.9
20260905153506 80 75 1.0 4.0 0.00 0.00 0.00 77 1015.0
20260905153004 80 49 1.0 4.0 0.00 0.00 0.00 78 1014.8
20260905152504 80 46 1.0 4.0 0.00 0.00 0.00 79 1014.8
20260905152005 79 48 0.0 3.0 0.00 0.00 0.00 80 1014.7
20260905151505 79 60 1.0 4.0 0.00 0.00 0.00 81 1014.7
20260905151006 78 63 1.0 5.0 0.00 0.00 0.00 82 1014.7
20260905150503 78 46 1.0 5.0 0.00 0.00 0.00 81 1014.7
20260905150007 78 61 0.0 3.0 0.00 0.00 0.00 81 1014.6
20260905145504 78 18 1.0 3.0 0.00 0.00 0.00 81 1014.6
20260905145005 78 49 1.0 4.0 0.00 0.00 0.00 82 1014.6
20260905144503 77 42 0.0 4.0 0.00 0.00 0.00 82 1014.6
20260905144005 77 57 0.0 3.0 0.00 0.00 0.00 82 1014.6
20260905143503 77 42 1.0 6.0 0.00 0.00 0.00 82 1014.6
20260905143004 77 5 1.0 6.0 0.00 0.00 0.00 83 1014.6
20260905142503 77 34 1.0 6.0 0.00 0.00 0.00 83 1014.5
20260905142005 77 44 1.0 6.0 0.00 0.00 0.00 84 1014.5
20260905141503 76 51 0.0 3.0 0.00 0.00 0.00 85 1014.3
20260905141005 76 43 1.0 5.0 0.00 0.00 0.00 86 1014.4
20260905140007 75 20 1.0 4.0 0.00 0.00 0.00 87 1014.2
20260905134503 74 34 1.0 5.0 0.00 0.00 0.00 88 1014.3
20260905134004 74 26 1.0 3.0 0.00 0.00 0.00 90 1014.3
20260905133503 74 20 1.0 9.0 0.00 0.00 0.00 89 1014.5
20260905133004 74 19 1.0 9.0 0.00 0.00 0.00 89 1014.5
20260905132503 74 55 1.0 3.0 0.00 0.00 0.00 90 1014.6
20260905132007 74 59 1.0 4.0 0.00 0.00 0.00 90 1014.7
20260905131505 74 26 1.0 4.0 0.00 0.00 0.00 89 1014.6
20260905131004 74 28 1.0 4.0 0.00 0.00 0.00 89 1014.3
20260905130505 74 69 0.0 3.0 0.00 0.00 0.00 90 1014.2
20260905130004 74 45 0.0 3.0 0.00 0.00 0.00 90 1014.0
20260905125506 74 59 1.0 4.0 0.00 0.00 0.00 90 1014.0
20260905125005 74 40 1.0 4.0 0.00 0.00 0.00 90 1013.8
20260905124503 74 15 0.0 3.0 0.00 0.00 0.00 90 1013.8
20260905124008 74 56 0.0 2.0 0.00 0.00 0.00 90 1013.8
20260905123503 74 53 0.0 2.0 0.00 0.00 0.00 90 1013.7
20260905123005 74 54 0.0 2.0 0.00 0.00 0.00 90 1013.7
20260905122503 74 51 0.0 2.0 0.00 0.00 0.00 90 1013.6
20260905122005 74 51 0.0 2.0 0.00 0.00 0.00 90 1013.5
20260905121506 74 55 0.0 2.0 0.00 0.00 0.00 90 1013.7
20260905121009 74 53 1.0 2.0 0.00 0.00 0.00 90 1013.6
20260905120506 75 42 0.0 2.0 0.00 0.00 0.00 90 1013.5
20260905120006 75 33 0.0 2.0 0.00 0.00 0.00 90 1013.4
20260905115505 75 15 0.0 1.0 0.00 0.00 0.00 90 1013.5